Weather History for KHPN - June, 2013

Change the Weather History Date:

Friday, June 28, 2013

  Actual Average Record
Temperature  
Mean Temperature 78 °F -  
Max Temperature 84 °F 79 °F 93 °F (1991)
Min Temperature 71 °F 61 °F 53 °F (1974)
Cooling Degree Days 12    
Growing Degree Days 28 (Base 50)    
Moisture  
Dew Point 68 °F    
Average Humidity 77    
Maximum Humidity 94    
Minimum Humidity 55    
Precipitation  
Precipitation 0.01 in - - ()
Sea Level Pressure  
Sea Level Pressure 29.51 in    
Wind  
Wind Speed 6 mph (South)    
Max Wind Speed 12 mph    
Max Gust Speed 17 mph    
Visibility 9 miles    
Events      
Averages and records for this station are not official NWS values.
T = Trace of Precipitation, MM = Missing Value Source: NWS Daily Summary

Daily Weather History Graph

Daily Weather History Graph

Search for Another Location

Airport or City:

Trip Planner

Search our weather history database for the weather conditions in past years. The results will help you decide how hot, cold, wet, or windy it might be!

Date:

Astronomy

Jun. 28, 2013 Rise Set
Actual Time 5:24 AM EDT 8:31 PM EDT
Civil Twilight 4:51 AM EDT 9:04 PM EDT
Nautical Twilight 4:08 AM EDT 9:47 PM EDT
Astronomical Twilight 3:17 AM EDT 10:38 PM EDT
Moon 11:55 PM EDT (6/28) 11:32 AM EDT (6/28)
Length of Visible Light 16h 13m
Length of Day
15h 06m
Waning Gibbous, 66% of the Moon is Illuminated
Jun 28
Waning Gibbous
Jun 30
Last Quarter
Jul 8
New
Jul 15
First Quarter
Jul 22
Full

Hourly Weather History & Observations

Time (EDT) Temp. Heat Index Dew Point Humidity Pressure Visibility Wind Dir Wind Speed Gust Speed Precip Events Conditions
12:56 AM 72.0 °F - 70.0 °F 93% 29.55 in 6.0 mi South 5.8 mph - 0.01 in   Overcast
1:56 AM 72.0 °F - 70.0 °F 93% 29.54 in 7.0 mi SSE 5.8 mph - N/A   Overcast
2:56 AM 72.0 °F - 70.0 °F 93% 29.54 in 7.0 mi SSE 8.1 mph - N/A   Overcast
3:56 AM 71.1 °F - 69.1 °F 93% 29.53 in 7.0 mi South 6.9 mph - N/A   Overcast
4:56 AM 71.1 °F - 68.0 °F 90% 29.51 in 7.0 mi SSE 4.6 mph - N/A   Scattered Clouds
5:34 AM 71.6 °F - 69.8 °F 94% 29.54 in 6.0 mi Variable 4.6 mph - N/A   Overcast
5:56 AM 71.1 °F - 69.1 °F 93% 29.52 in 5.0 mi South 3.5 mph - N/A   Mostly Cloudy
6:56 AM 72.0 °F - 69.1 °F 91% 29.54 in 6.0 mi South 3.5 mph - N/A   Mostly Cloudy
7:56 AM 73.9 °F - 68.0 °F 82% 29.53 in 10.0 mi SW 6.9 mph - N/A   Mostly Cloudy
8:56 AM 75.0 °F - 68.0 °F 79% 29.52 in 10.0 mi Variable 5.8 mph - N/A   Mostly Cloudy
9:56 AM 77.0 °F - 68.0 °F 74% 29.50 in 10.0 mi SW 8.1 mph - N/A   Mostly Cloudy
10:56 AM 75.9 °F - 68.0 °F 76% 29.51 in 10.0 mi Calm Calm - N/A   Mostly Cloudy
11:56 AM 79.0 °F - 69.1 °F 72% 29.51 in 10.0 mi Variable 5.8 mph - N/A   Mostly Cloudy
12:56 PM 80.1 °F 82.3 °F 66.9 °F 64% 29.51 in 10.0 mi SW 6.9 mph - N/A   Mostly Cloudy
1:56 PM 79.0 °F - 68.0 °F 69% 29.51 in 10.0 mi West 5.8 mph - 0.00 in   Mostly Cloudy
2:56 PM 81.0 °F 84.1 °F 69.1 °F 67% 29.49 in 10.0 mi South 9.2 mph - 0.00 in   Scattered Clouds
3:56 PM 84.0 °F 86.3 °F 66.0 °F 55% 29.47 in 10.0 mi SSW 8.1 mph - N/A   Scattered Clouds
4:56 PM 82.9 °F 85.8 °F 68.0 °F 60% 29.47 in 10.0 mi South 11.5 mph 17.3 mph N/A   Scattered Clouds
5:56 PM 80.1 °F 82.3 °F 66.9 °F 64% 29.47 in 10.0 mi South 10.4 mph - N/A   Mostly Cloudy
6:56 PM 78.1 °F - 69.1 °F 74% 29.49 in 10.0 mi South 5.8 mph - N/A   Mostly Cloudy
7:56 PM 75.9 °F - 68.0 °F 76% 29.49 in 9.0 mi South 6.9 mph - N/A   Mostly Cloudy
8:56 PM 75.9 °F - 68.0 °F 76% 29.50 in 10.0 mi Calm Calm - N/A   Mostly Cloudy
9:56 PM 77.0 °F - 64.9 °F 66% 29.50 in 10.0 mi Calm Calm - N/A   Mostly Cloudy
10:56 PM 75.9 °F - 62.1 °F 62% 29.51 in 10.0 mi Variable 3.5 mph - N/A   Clear
11:56 PM 72.0 °F - 63.0 °F 73% 29.50 in 10.0 mi Calm Calm - N/A   Clear